Date String (YYYY-MM-DD hh:mm:ss) UTC,Instrument flags,Ambient pressure (hPa),Sample flow (lpm),Bypass flow (lpm),Sample temperature (°C),Ambient temperature (°C),ASC tube jacket temperature (°C),LED temperature (°C),Box temperature (°C),Sample RH (%),Span deviation,Mass concentration (μg/m³),Mass concentration (μg/m³),Mass concentration (μg/m³)
DateTimeUTC,F1_M11,P_M11,Q1_M11,Q2_M11,T1_M11,T2_M11,T3_M11,T4_M11,T5_M11,U1_M11,ZSPAN_M11,X0_M11,X2_M11,X1_M11
2021-11-03 11:00:00,,0831.7,5.00,0.00,23.8,22.9,00.0,32.9,25.5,22.6,0000.0,0002.34,0001.91,0001.76
2021-11-03 11:01:00,,0831.7,4.99,0.00,23.8,22.9,00.0,32.9,25.5,22.6,0000.0,0002.35,0001.91,0001.77
2021-11-03 11:02:00,,0831.7,5.00,0.00,23.8,22.9,00.0,32.9,25.5,22.5,0000.0,0002.36,0001.91,0001.77
2021-11-03 11:03:00,,0831.7,4.99,0.00,23.8,22.9,00.0,32.9,25.5,22.6,0000.0,0002.38,0001.94,0001.79
2021-11-03 11:04:00,,0831.7,5.00,0.00,23.8,22.9,00.0,32.9,25.5,22.5,0000.0,0002.35,0001.95,0001.81
2021-11-03 11:05:00,,0831.7,5.00,0.00,23.8,22.8,00.0,32.9,25.5,22.5,0000.0,0002.31,0001.94,0001.80
2021-11-03 11:06:00,,0831.7,5.01,0.00,23.8,22.8,00.0,32.9,25.5,22.5,0000.0,0002.28,0001.92,0001.80
2021-11-03 11:07:00,,0831.7,5.00,0.00,23.8,22.9,00.0,32.8,25.5,22.4,0000.0,0002.24,0001.92,0001.80
2021-11-03 11:08:00,,0831.8,5.00,0.00,23.8,22.9,00.0,32.8,25.5,22.4,0000.0,0002.19,0001.90,0001.79
2021-11-03 11:09:00,,0831.8,4.99,0.00,23.7,22.9,00.0,32.8,25.5,22.4,0000.0,0002.14,0001.87,0001.77
2021-11-03 11:10:00,,0831.8,5.01,0.00,23.7,22.9,00.0,32.8,25.5,22.4,0000.0,0002.11,0001.85,0001.76
2021-11-03 11:11:00,,0831.7,4.99,0.00,23.7,22.9,00.0,32.8,25.5,22.6,0000.0,0002.09,0001.85,0001.76
2021-11-03 11:12:00,,0831.7,5.02,0.00,23.7,22.8,00.0,32.8,25.5,22.6,0000.0,0002.10,0001.86,0001.77
2021-11-03 11:13:00,,0831.7,4.99,0.00,23.7,22.8,00.0,32.8,25.5,22.6,0000.0,0002.11,0001.88,0001.79
2021-11-03 11:14:00,,0831.7,5.00,0.00,23.7,22.8,00.0,32.8,25.5,22.6,0000.0,0002.11,0001.88,0001.79
2021-11-03 11:15:00,,0831.7,4.98,0.00,23.7,22.8,00.0,32.8,25.5,22.5,0000.0,0002.14,0001.89,0001.80
2021-11-03 11:16:00,,0831.7,5.01,0.00,23.7,22.8,00.0,32.8,25.5,22.4,0000.0,0002.14,0001.90,0001.81
2021-11-03 11:17:00,,0831.7,5.00,0.00,23.7,22.8,00.0,32.8,25.5,22.4,0000.0,0002.16,0001.92,0001.82
2021-11-03 11:18:00,,0831.7,5.00,0.00,23.7,22.8,00.0,32.8,25.5,22.4,0000.0,0002.13,0001.91,0001.84
2021-11-03 11:19:00,,0831.7,5.01,0.00,23.7,22.8,00.0,32.8,25.5,22.4,0000.0,0002.13,0001.92,0001.85
2021-11-03 11:20:00,,0831.7,5.01,0.00,23.7,22.8,00.0,32.8,25.5,22.4,0000.0,0002.15,0001.94,0001.87
2021-11-03 11:21:00,,0831.7,4.98,0.00,23.7,22.8,00.0,32.8,25.5,22.4,0000.0,0002.20,0001.98,0001.90
2021-11-03 11:22:00,,0831.7,5.01,0.00,23.7,22.8,00.0,32.8,25.4,22.4,0000.0,0002.20,0001.99,0001.91
2021-11-03 11:23:00,,0831.7,5.01,0.00,23.7,22.8,00.0,32.8,25.5,22.3,0000.0,0002.20,0001.98,0001.91
2021-11-03 11:24:00,,0831.7,5.00,0.00,23.7,22.8,00.0,32.8,25.5,22.3,0000.0,0002.17,0001.97,0001.91
2021-11-03 11:25:00,,0831.7,4.99,0.00,23.7,22.8,00.0,32.8,25.5,22.3,0000.0,0002.15,0001.96,0001.91
2021-11-03 11:26:00,,0831.7,4.99,0.00,23.7,22.8,00.0,32.8,25.5,22.3,0000.0,0002.15,0001.97,0001.91
2021-11-03 11:27:00,,0831.7,5.00,0.00,23.7,22.8,00.0,32.8,25.4,22.3,0000.0,0002.21,0001.99,0001.91
2021-11-03 11:28:00,,0831.7,5.00,0.00,23.7,22.8,00.0,32.8,25.4,22.3,0000.0,0002.20,0001.99,0001.91
2021-11-03 11:29:00,,0831.7,5.00,0.00,23.7,22.8,00.0,32.8,25.5,22.3,0000.0,0002.22,0002.00,0001.92
2021-11-03 11:30:00,,0831.7,5.01,0.00,23.7,22.8,00.0,32.8,25.4,22.3,0000.0,0002.23,0002.01,0001.92
2021-11-03 11:31:00,,0831.7,4.99,0.00,23.7,22.7,00.0,32.7,25.4,22.3,0000.0,0002.25,0002.01,0001.93
2021-11-03 11:32:00,,0831.7,5.00,0.00,23.7,22.7,00.0,32.7,25.4,22.3,0000.0,0002.23,0001.99,0001.92
2021-11-03 11:33:00,,0831.8,5.00,0.00,23.7,22.7,00.0,32.7,25.4,22.3,0000.0,0002.25,0001.99,0001.91
2021-11-03 11:34:00,,0831.7,5.00,0.00,23.7,22.7,00.0,32.7,25.4,22.3,0000.0,0002.23,0001.99,0001.91
2021-11-03 11:35:00,,0831.8,5.01,0.00,23.7,22.7,00.0,32.7,25.5,22.3,0000.0,0002.23,0001.98,0001.91
2021-11-03 11:36:00,,0831.7,5.00,0.00,23.7,22.8,00.0,32.7,25.4,22.3,0000.0,0002.27,0002.00,0001.91
2021-11-03 11:37:00,,0831.7,4.99,0.00,23.7,22.7,00.0,32.7,25.4,22.3,0000.0,0002.26,0002.00,0001.91
2021-11-03 11:38:00,,0831.7,5.01,0.00,23.6,22.7,00.0,32.7,25.4,22.3,0000.0,0002.25,0002.00,0001.92
2021-11-03 11:39:00,,0831.7,5.00,0.00,23.6,22.7,00.0,32.7,25.4,22.3,0000.0,0002.28,0002.02,0001.92
2021-11-03 11:40:00,,0831.7,5.00,0.00,23.6,22.7,00.0,32.7,25.4,22.3,0000.0,0002.25,0002.00,0001.91
2021-11-03 11:41:00,,0831.8,5.00,0.00,23.6,22.7,00.0,32.7,25.3,22.3,0000.0,0002.24,0001.99,0001.89
2021-11-03 11:42:00,,0831.7,5.00,0.00,23.6,22.7,00.0,32.7,25.3,22.2,0000.0,0002.31,0001.97,0001.86
2021-11-03 11:43:00,,0831.8,5.01,0.00,23.6,22.7,00.0,32.7,25.3,22.2,0000.0,0002.32,0001.97,0001.85
2021-11-03 11:44:00,,0831.7,4.98,0.00,23.6,22.7,00.0,32.7,25.3,22.2,0000.0,0002.31,0001.96,0001.85
2021-11-03 11:45:00,,0831.8,5.00,0.00,23.6,22.7,00.0,32.7,25.4,22.1,0000.0,0002.35,0001.98,0001.85
2021-11-03 11:46:00,,0831.8,5.01,0.00,23.6,22.7,00.0,32.7,25.4,22.1,0000.0,0002.36,0001.98,0001.84
2021-11-03 11:47:00,,0831.8,4.99,0.00,23.6,22.7,00.0,32.7,25.4,22.1,0000.0,0002.30,0001.95,0001.82
2021-11-03 11:48:00,,0831.8,5.00,0.00,23.6,22.7,00.0,32.7,25.4,22.2,0000.0,0002.29,0001.93,0001.79
2021-11-03 11:49:00,,0831.8,5.00,0.00,23.6,22.7,00.0,32.7,25.4,22.3,0000.0,0002.28,0001.91,0001.78
2021-11-03 11:50:00,,0831.8,5.00,0.00,23.6,22.7,00.0,32.7,25.4,22.4,0000.0,0002.27,0001.91,0001.79
2021-11-03 11:51:00,,0831.9,5.01,0.00,23.6,22.7,00.0,32.7,25.3,22.6,0000.0,0002.30,0001.94,0001.82
2021-11-03 11:52:00,,0831.9,5.01,0.00,23.6,22.7,00.0,32.7,25.3,22.6,0000.0,0002.35,0001.97,0001.85
2021-11-03 11:53:00,,0831.9,5.01,0.00,23.6,22.7,00.0,32.7,25.3,22.4,0000.0,0002.30,0001.97,0001.85
2021-11-03 11:54:00,,0831.9,4.99,0.00,23.6,22.7,00.0,32.7,25.4,22.3,0000.0,0002.26,0001.97,0001.85
2021-11-03 11:55:00,,0831.9,5.00,0.00,23.6,22.7,00.0,32.7,25.4,22.2,0000.0,0002.23,0001.96,0001.84
2021-11-03 11:56:00,,0831.9,5.00,0.00,23.6,22.7,00.0,32.7,25.4,22.3,0000.0,0002.19,0001.94,0001.83
2021-11-03 11:57:00,,0832.0,4.99,0.00,23.6,22.7,00.0,32.7,25.3,22.5,0000.0,0002.23,0001.97,0001.86
2021-11-03 11:58:00,,0831.9,5.01,0.00,23.5,22.7,00.0,32.6,25.3,22.7,0000.0,0002.28,0002.02,0001.91
2021-11-03 11:59:00,,0832.0,4.99,0.00,23.5,22.7,00.0,32.6,25.3,22.9,0000.0,0002.42,0002.13,0002.01
